Regional Weather Roundup
Issued by NWS Binghamton, NY

Home | Current Version | Previous Version | Text Only | Print | Product List | Glossary On
Versions: 1 2 3 4 5 6 7 8 9 10 11 12 13 14 15 16 17 18 19 20 21 22 23 24 25 26 27 28 29 30 31 32 33 34 35 36 37 38 39 40 41 42 43 44 45 46 47 48 49 50
000
ASUS41 KBGM 170110
RWRBGM
RWRBGM
BINGHAMTON REGIONAL WEATHER ROUNDUP
NATIONAL WEATHER SERVICE BINGHAMTON NY
900 PM EDT TUE SEP 16 2014

Note: "fair" indicates few or no clouds below 12,000 feet with no
significant weather and/or obstructions to visibility.

* = Station(s) that does not report precipitation, such as rain,
snow, etc, also no thunder or fog.

!NYZ009-015>018-022>025-036-037-044>046-055>057-062-170200
...CENTRAL NEW YORK...

CITY           SKY/WX    TMP DP  RH WIND       PRES   REMARKS
BINGHAMTON     CLEAR     55  45  68 N5        30.04S
CORTLAND       FAIR      46  46 100 CALM      30.07R
DANSVILLE      CLEAR     50  47  89 CALM      30.07R
ELMIRA         CLEAR     50  47  89 W3        30.05R
ITHACA         CLEAR     50  47  89 CALM      30.07R
HAMILTON       CLEAR     46  45  93 CALM      30.05R
MONTICELLO     CLEAR     52  46  82 CALM      30.05R
NORWICH        CLEAR     46  45  93 CALM      30.05S
PENN YAN       CLEAR     50  45  83 SE5       30.06R
ROME           CLEAR     50  48  93 CALM      30.05R
SIDNEY         CLEAR     50  50 100 CALM      30.05S
SYRACUSE       PTCLDY    56  45  66 SW6       30.04R
$$

!PAZ038>040-043-044-047-048-072-170200
...NORTHEAST PENNSYLVANIA...

CITY           SKY/WX    TMP DP  RH WIND       PRES   REMARKS
HAZLETON       CLOUDY    52  50  93 CALM      30.08S
SCRANTON       CLEAR     53  48  83 E7        30.04R
TOWANDA*       CLEAR     52  52 100 SW3       30.06R
$$
&&
KEY
WCI = WIND CHILL INDEX
VSB = VISIBILITY
HX  = HEAT INDEX
$$


USA.gov is the U.S. government's official web portal to all federal, state and local government web resources and services.